Starlink 4290

operational
NORAD ID: 53006 Int'l Des: 2022-076 Owner: SPXS Country: US Constellation: starlink
LEOCIRCULAR

Starlink 4290について

説明を読み込み中...

リアルタイム位置

3D地球を読み込み中...

次回通過

高度履歴

Altitude vs Time

uPlot chart will show altitude changes over time

軌道要素

1 53006U 22076W 25353.98050631 -.00000676 00000-0 -24402-4 0 9998
2 53006 53.2175 91.9470 0001236 87.6120 272.5014 15.08830133190817
Epoch: Dec 19, 2025 • Age: 12 hours

現在のステータス

高度 541.3 km
速度 7.59 km/s
衛星直下点 -3.47°S, 10.89°E
打ち上げ日 Jul 7, 2022
運用期間 3.4 years
タイプ internet

技術仕様

分類 Payload
質量 297.00 kg
乾燥質量 275.00 kg
総質量 297.00 kg
長さ 0.20 m
直径 2.80 m
スパン 9.00 m
形状 Box + pan
製造者 SPXS
バスタイプ Starlink
フェーズステータス In Orbit
所有者/国 SPXS/US

大規模コンステレーション

Loading constellations...